Quillayute, WA
on Friday, December 14, 2012

Friday
Previous Day Next Day
Daily Summary
 ActualAverageRecord
Temperature
Mean Temperature °F 40°F  
Max Temperature 45°F 46°F 55°F (2002)
Min Temperature 31°F 34°F 22°F (1972)
Degree Days
Heating Degree Days 27 25  
Month to date heating degree days 342  
Since 1 July heating degree days 2056  
Cooling Degree Days 0 0  
Month to date cooling degree days 0  
Year to date cooling degree days 19  
Moisture
Dew Point 36°F   
Average Humidity 97    
Maximum Humidity 100    
Minimum Humidity 74    
Precipitation
Precipitation T in 0.40 in 2.99 in (1984)
Month to date precipitation 6.14  
Year to date precipitation 92.69  
Wind
Wind Speed 2 mph   
Max Wind Speed 7 mph   
Max Gust Speed 9 mph   
Visibility 3 miles   
Events Fog , Rain   

Key: T is trace of precipitation, MM is missing value
Source: NWS Daily Summary
Time(PST)TemperatureDew PointHumidity Pressure Visibility Wind DirectionWind SpeedGust SpeedPrecipitationEvents Conditions
12:48 AM 41.0°F 39.2°F 93% 29.76 in 7.0 miles ENE 4.6 mph - N/A   Overcast
12:53 AM 41.0°F 39.0°F 93% 29.76 in 7.0 miles NE 4.6 mph - N/A   Overcast
1:29 AM 41.0°F 39.2°F 93% 29.77 in 2.5 miles NNE 3.5 mph - 0.00 in Rain Light Rain
1:46 AM 39.2°F 39.2°F 100% 29.78 in 2.0 miles NNW 3.5 mph - 0.00 in Rain Light Rain
1:53 AM 39.9°F 39.0°F 97% 29.78 in 4.0 miles NE 3.5 mph - 0.00 in   Overcast
2:14 AM 39.2°F 37.4°F 93% 29.78 in 8.0 miles NNW 3.5 mph - N/A   Mostly Cloudy
2:33 AM 39.2°F 39.2°F 100% 29.79 in 7.0 miles NNW 6.9 mph - N/A   Mostly Cloudy
2:53 AM 39.9°F 39.0°F 97% 29.80 in 2.5 miles Calm Calm - 0.00 in Rain Light Rain
3:03 AM 39.2°F 39.2°F 100% 29.79 in 5.0 miles Calm Calm - 0.00 in   Overcast
3:16 AM 39.2°F 39.2°F 100% 29.79 in 7.0 miles East 4.6 mph - 0.00 in   Overcast
3:37 AM 39.2°F 39.2°F 100% 29.79 in 8.0 miles Calm Calm - 0.00 in   Overcast
3:53 AM 39.2°F 39.2°F 100% 29.79 in 8.0 miles Calm Calm - N/A   Overcast
4:42 AM 37.4°F 37.4°F 100% 29.79 in 1.8 miles Calm Calm - N/A   Scattered Clouds
4:50 AM 37.4°F 37.4°F 100% 29.79 in 1.0 miles Calm Calm - N/A   Partly Cloudy
4:53 AM 37.0°F 36.0°F 96% 29.80 in 1.2 miles Calm Calm - N/A   Clear
5:01 AM 37.4°F 37.4°F 100% 29.79 in 2.0 miles Calm Calm - N/A   Scattered Clouds
5:11 AM 35.6°F 35.6°F 100% 29.79 in 5.0 miles Calm Calm - N/A   Scattered Clouds
5:15 AM 37.4°F 35.6°F 93% 29.79 in 1.8 miles East 3.5 mph - N/A   Scattered Clouds
5:23 AM 35.6°F 35.6°F 100% 29.79 in 1.0 miles Calm Calm - N/A   Scattered Clouds
5:26 AM 35.6°F 35.6°F 100% 29.80 in 0.8 miles North 3.5 mph - N/A   Mostly Cloudy
5:38 AM 35.6°F 35.6°F 100% 29.80 in 0.8 miles Calm Calm - N/A   Mist
5:42 AM 35.6°F 35.6°F 100% 29.80 in 1.2 miles Calm Calm - N/A   Partly Cloudy
5:48 AM 35.6°F 33.8°F 93% 29.80 in 0.8 miles Calm Calm - N/A   Mist
5:53 AM 34.0°F 34.0°F 100% 29.81 in 0.5 miles Calm Calm - N/A Fog Fog
6:05 AM 35.6°F 35.6°F 100% 29.80 in 0.2 miles Calm Calm - N/A Fog Fog
6:24 AM 35.6°F 35.6°F 100% 29.81 in 1.0 miles Calm Calm - N/A   Mist
6:32 AM 33.8°F 33.8°F 100% 29.81 in 1.2 miles Calm Calm - N/A   Scattered Clouds
6:41 AM 33.8°F 33.8°F 100% 29.81 in 2.0 miles Calm Calm - N/A   Partly Cloudy
6:53 AM 32.0°F 32.0°F 100% 29.83 in 1.2 miles Calm Calm - N/A   Clear
7:06 AM 32.0°F 30.2°F 93% 29.82 in 2.0 miles Calm Calm - N/A   Clear
7:10 AM 30.2°F 30.2°F 100% 29.82 in 1.8 miles Calm Calm - N/A   Partly Cloudy
7:13 AM 32.0°F 30.2°F 93% 29.83 in 1.0 miles Calm Calm - N/A   Mist
7:20 AM 32.0°F 32.0°F 100% 29.83 in 0.8 miles ENE 3.5 mph - N/A   Mist
7:35 AM 33.8°F 33.8°F 100% 29.83 in 0.5 miles Calm Calm - N/A Fog Fog
7:48 AM 32.0°F 32.0°F 100% 29.83 in 1.0 miles Calm Calm - N/A   Mist
7:49 AM 32.0°F 32.0°F 100% 29.84 in 1.0 miles Calm Calm - N/A   Mist
8:03 AM 32.0°F 30.2°F 93% 29.84 in 0.2 miles Calm Calm - N/A Fog Fog
8:12 AM 32.0°F 30.2°F 93% 29.84 in 0.2 miles ENE 3.5 mph - N/A Fog Fog
8:42 AM 32.0°F 32.0°F 100% 29.85 in 0.2 miles Calm Calm - N/A Fog Fog
8:53 AM 32.0°F 32.0°F 100% 29.86 in 0.2 miles Calm Calm - N/A Fog Fog
9:53 AM 33.1°F 33.1°F 100% 29.88 in 0.2 miles Calm Calm - N/A Fog Fog
10:53 AM 35.1°F 35.1°F 100% 29.89 in 0.2 miles Calm Calm - N/A Fog Fog
11:28 AM 37.4°F 37.4°F 100% 29.88 in 0.2 miles ESE 3.5 mph - N/A Fog Fog
11:53 AM 37.0°F 37.0°F 100% 29.88 in 0.2 miles Calm Calm - N/A Fog Fog
12:22 PM 39.2°F 39.2°F 100% 29.88 in 0.2 miles SE 3.5 mph - N/A Fog Fog
12:53 PM 39.9°F 39.9°F 100% 29.89 in 0.2 miles Calm Calm - N/A Fog Fog
12:59 PM 39.2°F 39.2°F 100% 29.88 in 0.5 miles Calm Calm - N/A Fog Fog
1:10 PM 39.2°F 39.2°F 100% 29.88 in 0.2 miles ESE 3.5 mph - N/A Fog Fog
1:18 PM 39.2°F 39.2°F 100% 29.88 in 0.8 miles Calm Calm - N/A   Mist
1:20 PM 41.0°F 41.0°F 100% 29.88 in 2.5 miles Calm Calm - N/A   Mostly Cloudy
1:27 PM 41.0°F 39.2°F 93% 29.88 in 5.0 miles ESE 3.5 mph - N/A   Mostly Cloudy
1:35 PM 41.0°F 41.0°F 100% 29.88 in 6.0 miles Calm Calm - N/A   Scattered Clouds
1:53 PM 44.1°F 39.9°F 85% 29.89 in 6.0 miles ESE 3.5 mph - N/A   Clear
2:53 PM 45.0°F 37.0°F 74% 29.88 in 6.0 miles Calm Calm - N/A   Haze
3:53 PM 42.1°F 37.9°F 85% 29.90 in 6.0 miles Calm Calm - N/A   Clear
4:29 PM 37.4°F 37.4°F 100% 29.89 in 1.8 miles Calm Calm - N/A   Clear
4:40 PM 37.4°F 37.4°F 100% 29.89 in 3.0 miles East 3.5 mph - N/A   Clear
4:53 PM 37.0°F 36.0°F 96% 29.90 in 6.0 miles Calm Calm - N/A   Clear
5:53 PM 35.1°F 34.0°F 96% 29.90 in 6.0 miles East 4.6 mph - N/A   Clear
6:53 PM 35.1°F 34.0°F 96% 29.90 in 7.0 miles ENE 4.6 mph - N/A   Clear
7:53 PM 35.1°F 34.0°F 96% 29.91 in 7.0 miles ENE 4.6 mph - N/A   Clear
8:53 PM 36.0°F 34.0°F 93% 29.90 in 7.0 miles East 4.6 mph - N/A   Overcast
9:53 PM 36.0°F 34.0°F 93% 29.88 in 8.0 miles East 4.6 mph - N/A   Scattered Clouds
10:53 PM 35.1°F 33.1°F 92% 29.86 in 8.0 miles East 5.8 mph - N/A   Partly Cloudy
11:53 PM 37.0°F 32.0°F 82% 29.84 in 8.0 miles ESE 4.6 mph - N/A   Mostly Cloudy
Moon Phase
Dec. 14 Dec. 20 Dec. 28 Jan. 04 Jan. 11
Sunrise:08:00 AM (PST) Moon Rise:09:06 AM (PST)12/14
Sunset:04:25 PM (PST) Moon Set:06:30 PM (PST)12/14

Copyright © 2014 The Weather Underground, Inc.